User: anonymous
Location: Bangkok
(13.7500°N, 100.5170°E)
Time: 10:04:01
(UTC+07:00)
Language:

SPOT 1/Viking Rocket - Orbit

View from above orbital plane
View from above orbital plane
View from above satellite
View from above satellite

Ground track
Ground track

The orbit data is extracted from the following two-line orbital elements,

1 16615U 86019C   14238.17295684  .00000104  00000-0  56513-4 0  4683
2 16615 098.7516 289.8409 0012330 175.6170 251.2735 14.31294074492705
Epoch (UTC): 26 August 2014 04:09:03
Eccentricity: 0.0012330
inclination: 98.7516°
perigee height: 778 km
apogee height: 796 km
right ascension of ascending node: 289.8409°
argument of perigee: 175.6170°
revolutions per day: 14.31294074
mean anomaly at epoch: 251.2735°
orbit number at epoch: 49270

The dashed part of the orbit path shows where the satellite is in the earth's shadow,  

DLR